[[{"header":{"parameterUnit":"m.s-1","parameterCategory":1,"la1":30.2991,"la2":30.254,"lo1":-89.0895,"lo2":-89.0444,"dy":0.0017,"dx":0.0017,"nx":28,"ny":28,"refTime":"2024-08-04T03:00:00:Z","depth":0,"parameterNumber":2,"parameterNumberName":"U-component_of_WINDS"},"data":[0,0,0,0,0,0,0,0,0,0,0,0,0,0,0,0,0,0,0,0,0,0,0,0,0,0,0,0,0,0,0,0,0,0,0,0,0,0,0,0,0,0,0,0,0,0,0,0,0,0,0,0,0,0,0,0,0,0,-4.0395,-4.0394,0,-4.0367,-4.0367,-4.0367,-4.0256,-4.0253,-4.025,-4.0248,-4.0222,-4.0224,-4.0226,0,0,0,0,0,0,0,0,0,0,0,0,0,-4.0355,-4.0356,-4.0395,-4.0394,-4.0394,-4.0367,-4.0367,-4.0367,-4.0256,-4.0253,-4.025,-4.0247,-4.0222,-4.0224,-4.0226,0,0,0,0,0,0,0,0,0,0,0,0,0,-4.0354,-4.0356,-4.0395,-4.0336,-4.033,-4.0367,-4.0367,-4.0366,-4.0257,-4.0253,-4.0249,-4.0245,-4.0221,-4.0224,-4.0226,-4.0319,0,0,-4.0234,-4.0235,0,0,0,0,0,0,0,0,-4.0354,-4.0356,-4.0345,-4.034,-4.0333,-4.0311,-4.0343,-4.0351,-4.0258,-4.0285,-4.0248,-4.0243,-4.0255,-4.0255,-4.0258,-4.0318,-4.0317,-4.0234,-4.0236,-4.0237,-4.0238,0,0,0,0,0,0,0,-4.0355,-4.0356,-4.0384,-4.0345,-4.0338,-4.0312,-4.0307,-4.0344,-4.0292,-4.0282,-4.0274,-4.0272,-4.0251,-4.0256,-4.0257,-4.0317,-4.0234,-4.0237,-4.0238,-4.0239,-4.0455,-4.0459,0,0,0,0,0,0,-4.0363,-4.0357,-4.0385,-4.0383,-4.0335,-4.0315,-4.031,-4.0322,-4.0291,-4.0283,-4.0275,-4.0267,-4.0253,-4.0254,-4.0255,-4.0365,-4.0237,-4.0239,-4.0241,-4.0451,-4.0456,-4.046,0,0,0,0,0,0,-4.0362,-4.0366,-4.0386,-4.0368,-4.0368,-4.032,-4.0334,-4.0324,-4.0328,-4.0286,-4.0276,-4.0289,-4.025,-4.0252,-4.0305,-4.0362,-4.0241,-4.0243,-4.0446,-4.0452,-4.0458,-4.0583,0,0,0,0,0,0,-4.0362,-4.0367,-4.0401,-4.0369,-4.037,-4.0435,-4.0337,-4.0326,-4.0332,-4.0321,-4.0297,-4.0289,-4.0247,-4.0302,-4.0307,-4.0363,-4.0245,-4.044,-4.0449,-4.0456,-4.0573,-4.0593,-4.0609,0,0,0,0,0,-4.036,-4.0437,-4.0403,-4.0407,-4.0411,-4.0438,-4.0439,-4.0389,-4.0337,-4.0372,-4.0346,-4.029,-4.0355,-4.0308,-4.0313,-4.0371,-4.0437,-4.0446,-4.0456,-4.0565,-4.0589,-4.0609,0,0,0,0,0,0,-4.0476,-4.0431,-4.0393,-4.0461,-4.0455,-4.042,-4.0461,-4.0415,-4.0423,-4.0412,-4.035,-4.0345,-4.0408,-4.0394,-4.0343,-4.0461,-4.0386,-4.0397,-4.0468,-4.049,-4.0507,-4.051,-4.0247,0,0,0,0,0,-4.0509,-4.0534,-4.0494,-4.0558,-4.0557,-4.051,-4.052,-4.0482,-4.0473,-4.047,-4.0447,-4.0441,-4.046,-4.0474,-4.0489,-4.057,-4.0565,-4.0613,-4.0631,-4.0646,-4.0657,-4.0702,-4.0724,-4.0491,-4.0491,-4.0491,0,0,-4.0578,-4.0557,-4.0577,-4.0581,-4.0571,-4.06,-4.0508,-4.0542,-4.0564,-4.0475,-4.0524,-4.0508,-4.0497,-4.0566,-4.0594,-4.0556,-4.072,-4.0658,-4.067,-4.0673,-4.0714,-4.0736,-4.0755,-4.0498,-4.0497,-4.0496,0,0,-4.072,-4.0705,-4.0758,-4.0751,-4.0737,-4.0706,-4.0719,-4.0691,-4.0677,-4.0725,-4.066,-4.0685,-4.0718,-4.0714,-4.0717,-4.0859,-4.081,-4.0866,-4.096,-4.1004,-4.1023,-4.1039,-4.1092,-4.1112,-4.0876,-4.0877,-4.0877,0,-4.0808,-4.0848,-4.0792,-4.0831,-4.0836,-4.0756,-4.0811,-4.0806,-4.0799,-4.0805,-4.0761,-4.0804,-4.079,-4.0859,-4.0894,-4.0897,-4.0912,-4.0869,-4.1024,-4.104,-4.1054,-4.1104,-4.1124,-4.0884,-4.0883,-4.0882,-4.0882,0,-4.0958,-4.0987,-4.1032,-4.1027,-4.1037,-4.1083,-4.1036,-4.1053,-4.1014,-4.0989,-4.104,-4.1022,-4.1033,-4.1046,-4.1009,-4.111,-4.1087,-4.1035,-4.0959,-4.1084,-4.1131,-4.1149,-4.0894,-4.0891,-4.0889,-4.0888,0,0,-4.1171,-4.1136,-4.1154,-4.1152,-4.1132,-4.1154,-4.1198,-4.1208,-4.1225,-4.1223,-4.126,-4.1291,-4.1244,-4.1247,-4.1208,-4.1247,-4.1365,-4.1191,-4.119,-4.1226,-4.1479,-4.152,-4.1543,-4.1331,-4.1335,-4.1337,-4.1481,0,-4.1308,-4.1381,-4.1333,-4.1414,-4.1441,-4.1367,-4.1406,-4.1399,-4.1377,-4.1398,-4.1372,-4.1397,-4.1331,-4.1332,-4.1368,-4.1343,-4.1415,-4.1332,-4.1367,-4.1369,-4.1375,-4.1567,-4.161,-4.1746,-4.1498,-4.1501,-4.1503,0,-4.1477,-4.1483,-4.1568,-4.1544,-4.1554,-4.159,-4.1597,-4.1618,-4.1609,-4.159,-4.1595,-4.1547,-4.159,-4.1515,-4.1575,-4.152,-4.1531,-4.1522,-4.1526,-4.1529,-4.1446,-4.1578,-4.1788,-4.1809,-4.1531,-4.1529,-4.1527,0,-4.1628,-4.1657,-4.1711,-4.1712,-4.1685,-4.1713,-4.1703,-4.1691,-4.1701,-4.1708,-4.1715,-4.1726,-4.1734,-4.1745,-4.1703,-4.1651,-4.177,-4.169,-4.1758,-4.1759,-4.1788,-4.1787,-4.2005,-4.1792,-4.1791,-4.1791,-4.179,0,-4.1787,-4.1842,-4.1779,-4.1813,-4.1874,-4.1818,-4.188,-4.1862,-4.1853,-4.1883,-4.1819,-4.185,-4.1791,-4.1816,-4.1783,-4.1841,-4.1843,-4.1831,-4.1822,-4.1838,-4.184,-4.1846,-4.1837,-4.1796,-4.1795,-4.1794,-4.1793,0,-4.1966,-4.1926,-4.1981,-4.1952,-4.1946,-4.1992,-4.1968,-4.1999,-4.1973,-4.2013,-4.2019,-4.1978,-4.2004,-4.1963,-4.1984,-4.1962,-4.2042,-4.2017,-4.2045,-4.2039,-4.211,-4.2105,-4.2342,-4.2372,-4.2137,-4.2139,-4.2141,0,-4.2071,-4.2112,-4.2088,-4.2104,-4.2098,-4.2124,-4.2135,-4.2082,-4.2097,-4.2091,-4.2124,-4.2145,-4.2159,-4.2205,-4.2178,-4.2195,-4.2172,-4.2254,-4.2174,-4.219,-4.2177,-4.2176,-4.2181,-4.2271,-4.2274,-4.2276,-4.2278,0,-4.2264,-4.2242,-4.2259,-4.2271,-4.2286,-4.2292,-4.2294,-4.2311,-4.2256,-4.2276,-4.2302,-4.2313,-4.2336,-4.2359,-4.2369,-4.236,-4.2312,-4.2303,-4.232,-4.2338,-4.2354,-4.235,-4.2093,-4.2298,-4.2296,-4.2295,-4.2294,-4.2293,-4.241,-4.2444,-4.2434,-4.2456,-4.2452,-4.2456,-4.2485,-4.2462,-4.2483,-4.2497,-4.2465,-4.25,-4.2493,-4.2502,-4.2499,-4.2527,-4.2491,-4.2515,-4.2522,-4.2529,-4.2542,-4.2348,-4.2528,-4.2527,-4.2527,-4.2526,-4.2526,0,-4.2602,-4.2591,-4.2612,-4.2618,-4.2636,-4.2587,-4.2588,-4.2607,-4.2638,-4.2635,-4.2651,-4.2683,-4.2705,-4.268,-4.2699,-4.2726,-4.2704,-4.2733,-4.2731,-4.2731,-4.2571,-4.2556,-4.275,-4.275,-4.275,-4.275,-4.275,-4.275,-4.2703,-4.2759,-4.2737,-4.2792,-4.2781,-4.2814,-4.2819,-4.2823,-4.2821,-4.2859,-4.2878,-4.2861,-4.285,-4.2867,-4.2887,-4.2879,-4.289,-4.2927,-4.2912,-4.2764,-4.2742,-4.2721,-4.2706,-4.2929,-4.293,-4.307,-4.3071,-4.3072]},{"header":{"parameterUnit":"m.s-1","parameterCategory":1,"la1":30.2991,"la2":30.254,"lo1":-89.0895,"lo2":-89.0444,"dy":0.0017,"dx":0.0017,"nx":28,"ny":28,"refTime":"2024-08-04T03:00:00:Z","depth":0,"parameterNumber":3,"parameterNumberName":"V-component_of_WINDS"},"data":[0,0,0,0,0,0,0,0,0,0,0,0,0,0,0,0,0,0,0,0,0,0,0,0,0,0,0,0,0,0,0,0,0,0,0,0,0,0,0,0,0,0,0,0,0,0,0,0,0,0,0,0,0,0,0,0,0,0,0.2646,0.2646,0,0.265,0.265,0.265,0.2678,0.2679,0.2679,0.268,0.2682,0.2682,0.2681,0,0,0,0,0,0,0,0,0,0,0,0,0,0.2659,0.2659,0.2646,0.2646,0.2646,0.265,0.265,0.265,0.2678,0.2679,0.2679,0.268,0.2682,0.2682,0.2681,0,0,0,0,0,0,0,0,0,0,0,0,0,0.2657,0.2659,0.2646,0.266,0.2661,0.265,0.265,0.265,0.2678,0.2679,0.268,0.2681,0.2683,0.2682,0.2681,0.2655,0,0,0.2678,0.2678,0,0,0,0,0,0,0,0,0.2657,0.2657,0.2658,0.2659,0.2661,0.2664,0.2656,0.2652,0.2677,0.2671,0.268,0.2681,0.2675,0.2675,0.2674,0.2655,0.2655,0.2678,0.2678,0.2677,0.2677,0,0,0,0,0,0,0,0.2657,0.2657,0.2647,0.2658,0.2659,0.2666,0.2667,0.2655,0.2667,0.2672,0.2674,0.2674,0.2676,0.2674,0.2674,0.2655,0.2678,0.2677,0.2677,0.2677,0.2615,0.2614,0,0,0,0,0,0,0.2656,0.2657,0.2647,0.2647,0.2662,0.2665,0.2666,0.2662,0.2668,0.267,0.2673,0.2676,0.2675,0.2675,0.2674,0.2643,0.2677,0.2677,0.2676,0.2616,0.2615,0.2613,0,0,0,0,0,0,0.2656,0.2655,0.2647,0.2653,0.2652,0.2663,0.2659,0.2662,0.266,0.2669,0.2671,0.2669,0.2676,0.2675,0.266,0.2643,0.2676,0.2675,0.2617,0.2616,0.2614,0.2581,0,0,0,0,0,0,0.2656,0.2655,0.2645,0.2652,0.2652,0.2633,0.2658,0.2661,0.2659,0.2661,0.2666,0.2667,0.2677,0.2661,0.2659,0.2643,0.2675,0.2619,0.2617,0.2615,0.2583,0.2578,0.2574,0,0,0,0,0,0.2657,0.2636,0.2645,0.2643,0.264,0.2632,0.2631,0.2644,0.2657,0.2647,0.2653,0.2667,0.2646,0.2659,0.2657,0.264,0.262,0.2617,0.2615,0.2585,0.2579,0.2574,0,0,0,0,0,0,0.2626,0.2637,0.2647,0.2628,0.2629,0.2636,0.2624,0.2637,0.2633,0.2636,0.2651,0.2651,0.2633,0.2636,0.265,0.2615,0.2635,0.2632,0.2614,0.2608,0.2603,0.2601,0.2674,0,0,0,0,0,0.2617,0.261,0.262,0.2601,0.2602,0.2613,0.261,0.2619,0.262,0.2621,0.2625,0.2625,0.2619,0.2614,0.2608,0.2585,0.2585,0.2572,0.2568,0.2564,0.256,0.2546,0.254,0.2605,0.2605,0.2605,0,0,0.2598,0.2603,0.2597,0.2595,0.2597,0.2588,0.2613,0.2603,0.2596,0.2619,0.2604,0.2607,0.2609,0.2588,0.258,0.259,0.2542,0.256,0.2557,0.2556,0.2543,0.2536,0.2531,0.2603,0.2604,0.2604,0,0,0.2558,0.2563,0.2547,0.2549,0.2551,0.2559,0.2556,0.2562,0.2565,0.2551,0.2567,0.256,0.2548,0.2548,0.2546,0.2507,0.2519,0.2505,0.2479,0.2465,0.246,0.2455,0.2439,0.2433,0.2502,0.2502,0.2502,0,0.2534,0.2522,0.2538,0.2526,0.2524,0.2546,0.2529,0.253,0.253,0.2528,0.254,0.2526,0.2528,0.2507,0.2498,0.2497,0.2491,0.2503,0.2459,0.2455,0.2451,0.2435,0.2429,0.25,0.25,0.25,0.25,0,0.2491,0.2482,0.2469,0.247,0.2467,0.2453,0.2465,0.246,0.2471,0.2477,0.2461,0.2465,0.246,0.2457,0.2466,0.2437,0.2443,0.2457,0.2477,0.2442,0.2428,0.2422,0.2497,0.2498,0.2498,0.2499,0,0,0.2429,0.2439,0.2434,0.2434,0.2439,0.2432,0.242,0.2415,0.2409,0.241,0.2398,0.2388,0.2401,0.2399,0.2409,0.2398,0.2364,0.2413,0.2413,0.2402,0.2329,0.2316,0.2309,0.2373,0.2372,0.2371,0.2328,0,0.2389,0.2368,0.2382,0.2357,0.2349,0.237,0.2359,0.236,0.2366,0.2359,0.2365,0.2357,0.2376,0.2375,0.2365,0.237,0.2349,0.2374,0.236,0.2359,0.2356,0.2302,0.2288,0.2247,0.2323,0.2322,0.2321,0,0.2339,0.2337,0.2312,0.2318,0.2315,0.2305,0.2301,0.2295,0.2297,0.2302,0.23,0.2313,0.23,0.2322,0.2303,0.2319,0.2315,0.2317,0.2316,0.2312,0.2336,0.2294,0.2234,0.2227,0.2313,0.2313,0.2314,0,0.2293,0.2285,0.2268,0.2268,0.2276,0.2267,0.227,0.2273,0.227,0.2267,0.2264,0.226,0.2257,0.2253,0.2264,0.228,0.2243,0.2266,0.2245,0.2244,0.2233,0.2233,0.2169,0.2236,0.2236,0.2236,0.2236,0,0.2245,0.2228,0.2248,0.2237,0.2219,0.2236,0.2217,0.2221,0.2224,0.2214,0.2233,0.2223,0.224,0.2232,0.2241,0.2222,0.2221,0.2224,0.2225,0.222,0.2219,0.2215,0.2217,0.2234,0.2235,0.2235,0.2235,0,0.219,0.2203,0.2185,0.2195,0.2196,0.2182,0.2189,0.2179,0.2188,0.2175,0.2172,0.2184,0.2175,0.2187,0.2179,0.2185,0.2159,0.2167,0.2158,0.2159,0.2136,0.2137,0.2064,0.2054,0.213,0.2129,0.2129,0,0.2156,0.2144,0.2152,0.2147,0.2149,0.2141,0.2137,0.2154,0.2149,0.215,0.214,0.2133,0.2127,0.2112,0.2119,0.2113,0.2119,0.2094,0.2118,0.2112,0.2115,0.2114,0.2112,0.2088,0.2087,0.2086,0.2086,0,0.2095,0.2102,0.2097,0.2094,0.2089,0.2087,0.2087,0.2081,0.2098,0.2092,0.2084,0.208,0.2072,0.2064,0.206,0.2062,0.2075,0.2079,0.2073,0.2065,0.2059,0.2059,0.2141,0.2079,0.208,0.208,0.2081,0.2081,0.2048,0.2037,0.2041,0.2034,0.2036,0.2035,0.2025,0.2033,0.2026,0.2021,0.2032,0.202,0.2022,0.2018,0.2018,0.2009,0.2019,0.2011,0.2009,0.2006,0.2001,0.2064,0.2008,0.2009,0.2009,0.2009,0.2009,0,0.1985,0.1989,0.1983,0.1981,0.1976,0.1992,0.1992,0.1985,0.1975,0.1977,0.1971,0.1961,0.1953,0.1961,0.1954,0.1945,0.1951,0.1942,0.1941,0.1941,0.1993,0.1998,0.1937,0.1937,0.1937,0.1937,0.1937,0.1937,0.1951,0.1933,0.1941,0.1924,0.1928,0.1917,0.1915,0.1914,0.1915,0.1903,0.1897,0.1902,0.1905,0.1899,0.1893,0.1895,0.189,0.1879,0.1883,0.1931,0.1938,0.1944,0.1948,0.1878,0.1878,0.1831,0.183,0.183]}]]